Time,TemperatureF,DewpointF,PressureIn,WindDirection,WindDirectionDegrees,WindSpeedMPH,WindSpeedGustMPH,Humidity,HourlyPrecipIn,Conditions,Clouds,dailyrainin,SolarRadiationWatts/m^2,SoftwareType,DateUTC
2013-02-17 08:15:00,29.8,3.6,0.00,SSE,158,6.3,6.3,32,-99.99,,---,-99.99,0.00,VWS V14.01,2013-02-17 14:15:00,
2013-02-17 08:16:00,29.8,3.6,29.91,SSE,158,8.7,8.7,32,-99.99,,---,-99.99,0.00,VWS V14.01,2013-02-17 14:16:00,
2013-02-17 08:22:00,30.2,3.9,29.91,ESE,112,7.8,7.8,32,-99.99,,---,-99.99,0.00,VWS V14.01,2013-02-17 14:22:00,
2013-02-17 08:29:00,30.2,3.9,29.91,SE,135,6.5,9.0,32,-99.99,,---,-99.99,0.00,VWS V14.01,2013-02-17 14:29:00,
2013-02-17 08:34:00,31.3,3.5,29.91,ESE,112,7.8,7.8,30,-99.99,,---,-99.99,0.00,VWS V14.01,2013-02-17 14:34:00,
2013-02-17 08:39:00,31.6,4.5,29.88,SE,135,12.1,12.1,31,-99.99,,---,-99.99,0.00,VWS V14.01,2013-02-17 14:39:00,
2013-02-17 08:45:00,32.2,4.2,29.88,SE,135,9.8,9.8,30,-99.99,,---,-99.99,0.00,VWS V14.01,2013-02-17 14:45:00,
2013-02-17 08:51:00,32.7,4.7,29.91,SE,135,8.5,9.2,30,-99.99,,---,-99.99,0.00,VWS V14.01,2013-02-17 14:51:00,
2013-02-17 08:57:00,33.3,3.7,29.91,SE,135,7.6,10.5,28,-99.99,,---,-99.99,0.00,VWS V14.01,2013-02-17 14:57:00,
2013-02-17 09:02:00,33.4,3.8,29.91,SSE,158,7.8,7.8,28,-99.99,,---,-99.99,0.00,VWS V14.01,2013-02-17 15:02:00,
2013-02-17 09:07:00,34.3,3.8,29.91,SE,135,11.0,13.0,27,-99.99,,---,-99.99,0.00,VWS V14.01,2013-02-17 15:07:00,
2013-02-17 09:12:00,34.3,3.8,29.91,South,180,6.7,6.7,27,-99.99,,---,-99.99,0.00,VWS V14.01,2013-02-17 15:12:00,
2013-02-17 09:18:00,35.6,4.9,29.91,SSW,202,11.0,11.0,27,-99.99,,---,-99.99,0.00,VWS V14.01,2013-02-17 15:18:00,
2013-02-17 09:24:00,35.6,4.9,29.91,SE,135,8.7,8.7,27,-99.99,,---,-99.99,0.00,VWS V14.01,2013-02-17 15:24:00,
2013-02-17 09:30:00,36.7,3.3,29.91,SSE,158,7.4,7.4,24,-99.99,,---,-99.99,0.00,VWS V14.01,2013-02-17 15:30:00,
2013-02-17 09:35:00,37.2,3.8,29.91,SSE,158,8.7,8.7,24,-99.99,,---,-99.99,0.00,VWS V14.01,2013-02-17 15:35:00,
2013-02-17 09:41:00,37.4,3.9,29.91,South,180,11.0,11.0,24,-99.99,,---,-99.99,0.00,VWS V14.01,2013-02-17 15:41:00,
2013-02-17 09:46:00,37.9,4.4,29.91,SSE,158,12.5,12.5,24,-99.99,,---,-99.99,0.00,VWS V14.01,2013-02-17 15:46:00,
2013-02-17 09:51:00,38.5,2.0,29.91,SSE,158,7.6,9.0,21,-99.99,,---,-99.99,0.00,VWS V14.01,2013-02-17 15:51:00,
2013-02-17 09:57:00,39.4,2.7,29.91,SE,135,12.3,12.3,21,-99.99,,---,-99.99,0.00,VWS V14.01,2013-02-17 15:57:00,
2013-02-17 10:02:00,39.7,3.0,29.91,SSE,158,11.2,11.2,21,-99.99,,---,-99.99,0.00,VWS V14.01,2013-02-17 16:02:00,
2013-02-17 10:08:00,39.9,3.2,29.91,SE,135,7.8,11.4,21,-99.99,,---,-99.99,0.00,VWS V14.01,2013-02-17 16:08:00,
2013-02-17 10:13:00,40.3,3.5,29.91,SSE,158,8.5,11.2,21,-99.99,,---,-99.99,0.00,VWS V14.01,2013-02-17 16:13:00,
2013-02-17 10:18:00,40.3,3.5,29.91,South,180,7.8,7.8,21,-99.99,,---,-99.99,0.00,VWS V14.01,2013-02-17 16:18:00,
2013-02-17 10:23:00,41.4,4.4,29.91,SE,135,8.5,8.5,21,-99.99,,---,-99.99,0.00,VWS V14.01,2013-02-17 16:23:00,
2013-02-17 10:29:00,41.4,4.4,29.91,SE,135,8.1,8.5,21,-99.99,,---,-99.99,0.00,VWS V14.01,2013-02-17 16:29:00,
2013-02-17 10:34:00,41.9,4.8,29.91,SE,135,7.8,7.8,21,-99.99,,---,-99.99,0.00,VWS V14.01,2013-02-17 16:34:00,
2013-02-17 10:40:00,42.4,5.3,29.91,SSE,158,5.6,5.6,21,-99.99,,---,-99.99,0.00,VWS V14.01,2013-02-17 16:40:00,
2013-02-17 10:46:00,43.2,4.8,29.91,SE,135,9.8,9.8,20,-99.99,,---,-99.99,0.00,VWS V14.01,2013-02-17 16:46:00,
2013-02-17 10:51:00,43.2,4.8,29.88,SE,135,6.5,6.5,20,-99.99,,---,-99.99,0.00,VWS V14.01,2013-02-17 16:51:00,
2013-02-17 10:57:00,43.2,4.8,29.88,SE,135,5.6,5.6,20,-99.99,,---,-99.99,0.00,VWS V14.01,2013-02-17 16:57:00,
2013-02-17 11:03:00,43.2,4.8,29.88,ESE,112,9.6,9.6,20,-99.99,,---,-99.99,0.00,VWS V14.01,2013-02-17 17:03:00,
2013-02-17 11:08:00,45.1,6.5,29.88,South,180,6.7,10.7,20,-99.99,,---,-99.99,0.00,VWS V14.01,2013-02-17 17:08:00,
2013-02-17 11:13:00,45.3,6.6,29.88,SE,135,11.0,11.2,20,-99.99,,---,-99.99,0.00,VWS V14.01,2013-02-17 17:13:00,
2013-02-17 11:18:00,45.5,6.8,29.88,ESE,112,10.5,10.5,20,-99.99,,---,-99.99,0.00,VWS V14.01,2013-02-17 17:18:00,
2013-02-17 11:26:00,45.9,7.1,29.88,ESE,112,12.3,13.2,20,-99.99,,---,-99.99,0.00,VWS V14.01,2013-02-17 17:26:00,
2013-02-17 11:31:00,46.2,7.4,29.88,SSE,158,8.5,11.0,20,-99.99,,---,-99.99,0.00,VWS V14.01,2013-02-17 17:31:00,
2013-02-17 11:37:00,46.2,7.4,29.88,SSE,158,5.4,6.3,20,-99.99,,---,-99.99,0.00,VWS V14.01,2013-02-17 17:37:00,
2013-02-17 11:43:00,46.9,6.8,29.88,ESE,112,13.9,13.9,19,-99.99,,---,-99.99,0.00,VWS V14.01,2013-02-17 17:43:00,
2013-02-17 11:48:00,47.5,7.3,29.88,SSE,158,6.3,6.3,19,-99.99,,---,-99.99,0.00,VWS V14.01,2013-02-17 17:48:00,
2013-02-17 11:54:00,47.8,7.6,29.88,SSE,158,8.1,8.1,19,-99.99,,---,-99.99,0.00,VWS V14.01,2013-02-17 17:54:00,
2013-02-17 12:00:00,48.0,7.7,29.88,SE,135,10.1,12.1,19,-99.99,,---,-99.99,0.00,VWS V14.01,2013-02-17 18:00:00,
2013-02-17 12:05:00,48.4,8.0,29.85,SE,135,14.8,16.3,19,-99.99,,---,-99.99,0.00,VWS V14.01,2013-02-17 18:05:00,
2013-02-17 12:10:00,48.4,8.0,29.85,SE,135,14.8,14.8,19,-99.99,,---,-99.99,0.00,VWS V14.01,2013-02-17 18:10:00,
2013-02-17 12:16:00,49.3,8.8,29.85,SE,135,10.7,11.0,19,-99.99,,---,-99.99,0.00,VWS V14.01,2013-02-17 18:16:00,
2013-02-17 12:22:00,49.6,9.1,29.85,SE,135,5.6,12.8,19,-99.99,,---,-99.99,0.00,VWS V14.01,2013-02-17 18:22:00,
2013-02-17 12:27:00,49.8,9.2,29.85,SSE,158,9.8,9.8,19,-99.99,,---,-99.99,0.00,VWS V14.01,2013-02-17 18:27:00,
2013-02-17 12:32:00,50.2,9.5,29.85,SSE,158,9.8,9.8,19,-99.99,,---,-99.99,0.00,VWS V14.01,2013-02-17 18:32:00,
2013-02-17 12:38:00,50.5,9.8,29.85,SSE,158,13.2,13.2,19,-99.99,,---,-99.99,0.00,VWS V14.01,2013-02-17 18:38:00,
2013-02-17 12:43:00,50.2,9.5,29.85,SSE,158,15.4,16.3,19,-99.99,,---,-99.99,0.00,VWS V14.01,2013-02-17 18:43:00,
2013-02-17 12:48:00,50.5,9.8,29.85,South,180,15.2,15.2,19,-99.99,,---,-99.99,0.00,VWS V14.01,2013-02-17 18:48:00,
2013-02-17 12:53:00,50.5,9.8,29.85,SSE,158,9.8,17.5,19,-99.99,,---,-99.99,0.00,VWS V14.01,2013-02-17 18:53:00,
2013-02-17 12:59:00,50.7,10.0,29.85,SE,135,10.5,10.5,19,-99.99,,---,-99.99,0.00,VWS V14.01,2013-02-17 18:59:00,
2013-02-17 13:04:00,50.9,10.1,29.85,SE,135,8.5,16.3,19,-99.99,,---,-99.99,0.00,VWS V14.01,2013-02-17 19:04:00,
2013-02-17 13:09:00,51.6,10.7,29.85,SE,135,13.2,13.2,19,-99.99,,---,-99.99,0.00,VWS V14.01,2013-02-17 19:09:00,
2013-02-17 13:14:00,52.2,10.0,29.85,SE,135,9.6,14.8,18,-99.99,,---,-99.99,0.00,VWS V14.01,2013-02-17 19:14:00,
2013-02-17 13:20:00,52.2,10.0,29.85,South,180,11.0,15.2,18,-99.99,,---,-99.99,0.00,VWS V14.01,2013-02-17 19:20:00,
2013-02-17 13:26:00,52.2,10.0,29.85,ESE,112,12.1,12.1,18,-99.99,,---,-99.99,0.00,VWS V14.01,2013-02-17 19:26:00,
2013-02-17 13:31:00,52.2,10.0,29.85,SSE,158,14.3,14.3,18,-99.99,,---,-99.99,0.00,VWS V14.01,2013-02-17 19:31:00,
2013-02-17 13:37:00,52.5,10.2,29.85,SE,135,9.0,9.0,18,-99.99,,---,-99.99,0.00,VWS V14.01,2013-02-17 19:37:00,
2013-02-17 13:42:00,52.9,10.6,29.85,SE,135,11.0,16.3,18,-99.99,,---,-99.99,0.00,VWS V14.01,2013-02-17 19:42:00,
2013-02-17 13:47:00,52.7,10.4,29.85,SSE,158,13.0,13.0,18,-99.99,,---,-99.99,0.00,VWS V14.01,2013-02-17 19:47:00,
2013-02-17 13:53:00,52.9,10.6,29.82,SE,135,6.5,6.5,18,-99.99,,---,-99.99,0.00,VWS V14.01,2013-02-17 19:53:00,
2013-02-17 13:58:00,53.1,10.7,29.82,SSE,158,10.7,10.7,18,-99.99,,---,-99.99,0.00,VWS V14.01,2013-02-17 19:58:00,
2013-02-17 14:04:00,53.1,10.7,29.82,SSE,158,12.5,12.5,18,-99.99,,---,-99.99,0.00,VWS V14.01,2013-02-17 20:04:00,
2013-02-17 14:09:00,53.1,10.7,29.79,SSE,158,15.2,15.2,18,-99.99,,---,-99.99,0.00,VWS V14.01,2013-02-17 20:09:00,
2013-02-17 14:15:00,53.1,10.7,29.79,SSE,158,15.2,15.2,18,-99.99,,---,-99.99,0.00,VWS V14.01,2013-02-17 20:15:00,
2013-02-17 14:20:00,53.1,10.7,29.79,SSE,158,10.5,10.7,18,-99.99,,---,-99.99,0.00,VWS V14.01,2013-02-17 20:20:00,
2013-02-17 14:25:00,53.1,10.7,29.79,ESE,112,14.8,14.8,18,-99.99,,---,-99.99,0.00,VWS V14.01,2013-02-17 20:25:00,
2013-02-17 14:31:00,54.7,12.0,29.79,SSE,158,9.4,9.4,18,-99.99,,---,-99.99,0.00,VWS V14.01,2013-02-17 20:31:00,
2013-02-17 14:37:00,54.5,11.9,29.76,SE,135,5.4,14.8,18,-99.99,,---,-99.99,0.00,VWS V14.01,2013-02-17 20:37:00,
2013-02-17 14:43:00,54.7,12.0,29.76,SSE,158,10.1,11.2,18,-99.99,,---,-99.99,0.00,VWS V14.01,2013-02-17 20:43:00,
2013-02-17 14:48:00,54.9,12.2,29.76,SSE,158,13.0,13.0,18,-99.99,,---,-99.99,0.00,VWS V14.01,2013-02-17 20:48:00,
2013-02-17 14:53:00,54.5,11.9,29.79,SSE,158,10.3,13.2,18,-99.99,,---,-99.99,0.00,VWS V14.01,2013-02-17 20:53:00,
2013-02-17 14:58:00,54.3,11.7,29.79,SSE,158,12.5,13.2,18,-99.99,,---,-99.99,0.00,VWS V14.01,2013-02-17 20:58:00,
2013-02-17 15:04:00,55.0,12.3,29.79,ESE,112,13.2,13.2,18,-99.99,,---,-99.99,0.00,VWS V14.01,2013-02-17 21:04:00,
2013-02-17 15:10:00,55.0,12.3,29.79,SSE,158,7.8,7.8,18,-99.99,,---,-99.99,0.00,VWS V14.01,2013-02-17 21:10:00,
2013-02-17 15:16:00,55.0,12.3,29.79,SSE,158,15.7,15.7,18,-99.99,,---,-99.99,0.00,VWS V14.01,2013-02-17 21:16:00,
2013-02-17 15:22:00,54.9,12.2,29.79,SSW,202,12.8,12.8,18,-99.99,,---,-99.99,0.00,VWS V14.01,2013-02-17 21:22:00,
2013-02-17 15:27:00,55.2,12.5,29.76,SSE,158,12.8,15.4,18,-99.99,,---,-99.99,0.00,VWS V14.01,2013-02-17 21:27:00,
2013-02-17 15:33:00,55.2,12.5,29.76,SSE,158,12.5,17.2,18,-99.99,,---,-99.99,0.00,VWS V14.01,2013-02-17 21:33:00,
2013-02-17 15:39:00,55.2,12.5,29.76,SE,135,13.0,13.0,18,-99.99,,---,-99.99,0.00,VWS V14.01,2013-02-17 21:39:00,
2013-02-17 15:44:00,55.6,11.5,29.76,SSE,158,10.7,10.7,17,-99.99,,---,-99.99,0.00,VWS V14.01,2013-02-17 21:44:00,
2013-02-17 15:50:00,55.8,11.6,29.76,SSE,158,10.7,10.7,17,-99.99,,---,-99.99,0.00,VWS V14.01,2013-02-17 21:50:00,
2013-02-17 15:55:00,55.8,11.6,29.76,SE,135,9.8,12.3,17,-99.99,,---,-99.99,0.00,VWS V14.01,2013-02-17 21:55:00,
2013-02-17 16:01:00,55.8,11.6,29.76,SSE,158,12.5,12.5,17,-99.99,,---,-99.99,0.00,VWS V14.01,2013-02-17 22:01:00,
2013-02-17 16:06:00,55.8,11.6,29.74,SSE,158,9.2,9.2,17,-99.99,,---,-99.99,0.00,VWS V14.01,2013-02-17 22:06:00,
2013-02-17 16:11:00,55.8,11.6,29.74,South,180,14.5,14.5,17,-99.99,,---,-99.99,0.00,VWS V14.01,2013-02-17 22:11:00,
2013-02-17 16:16:00,55.4,11.3,29.74,South,180,12.1,12.1,17,-99.99,,---,-99.99,0.00,VWS V14.01,2013-02-17 22:16:00,
2013-02-17 16:22:00,55.6,11.5,29.71,SSE,158,15.4,15.4,17,-99.99,,---,-99.99,0.00,VWS V14.01,2013-02-17 22:22:00,
2013-02-17 16:27:00,55.8,11.6,29.71,East,90,14.8,14.8,17,-99.99,,---,-99.99,0.00,VWS V14.01,2013-02-17 22:27:00,
2013-02-17 16:32:00,55.6,11.5,29.71,SE,135,10.1,10.1,17,-99.99,,---,-99.99,0.00,VWS V14.01,2013-02-17 22:32:00,
2013-02-17 16:38:00,55.4,11.3,29.74,SSE,158,11.0,13.4,17,-99.99,,---,-99.99,0.00,VWS V14.01,2013-02-17 22:38:00,
2013-02-17 16:44:00,55.4,11.3,29.74,SSE,158,8.1,10.3,17,-99.99,,---,-99.99,0.00,VWS V14.01,2013-02-17 22:44:00,
2013-02-17 16:49:00,55.2,12.5,29.74,SSE,158,12.1,12.1,18,-99.99,,---,-99.99,0.00,VWS V14.01,2013-02-17 22:49:00,
2013-02-17 16:56:00,0.0,0.0,29.74,SSE,158,13.0,13.0,0,-99.99,,---,-99.99,0.00,VWS V14.01,2013-02-17 22:56:00,
2013-02-17 17:01:00,0.0,0.0,29.74,SSE,158,7.6,10.1,0,-99.99,,---,-99.99,0.00,VWS V14.01,2013-02-17 23:01:00,
2013-02-17 17:07:00,53.6,11.1,29.71,SE,135,7.2,7.2,18,-99.99,,---,-99.99,0.00,VWS V14.01,2013-02-17 23:07:00,
2013-02-17 17:13:00,53.2,10.9,29.71,SW,225,10.1,10.1,18,-99.99,,---,-99.99,0.00,VWS V14.01,2013-02-17 23:13:00,
2013-02-17 17:18:00,52.9,10.6,29.71,SSE,158,6.3,8.5,18,-99.99,,---,-99.99,0.00,VWS V14.01,2013-02-17 23:18:00,
2013-02-17 17:24:00,52.7,10.4,29.71,SSW,202,5.4,7.4,18,-99.99,,---,-99.99,0.00,VWS V14.01,2013-02-17 23:24:00,
2013-02-17 17:30:00,52.3,10.1,29.71,SE,135,10.3,10.3,18,-99.99,,---,-99.99,0.00,VWS V14.01,2013-02-17 23:30:00,
2013-02-17 17:36:00,52.0,9.8,29.71,SSE,158,10.7,11.4,18,-99.99,,---,-99.99,0.00,VWS V14.01,2013-02-17 23:36:00,
2013-02-17 17:42:00,52.0,9.8,29.68,SSE,158,8.7,10.7,18,-99.99,,---,-99.99,0.00,VWS V14.01,2013-02-17 23:42:00,
2013-02-17 17:48:00,51.3,10.4,29.68,SSE,158,8.5,10.1,19,-99.99,,---,-99.99,0.00,VWS V14.01,2013-02-17 23:48:00,
2013-02-17 17:53:00,50.9,10.1,29.68,SSE,158,6.3,6.5,19,-99.99,,---,-99.99,0.00,VWS V14.01,2013-02-17 23:53:00,
2013-02-17 17:59:00,50.5,9.8,29.68,SSE,158,4.7,7.6,19,-99.99,,---,-99.99,0.00,VWS V14.01,2013-02-17 23:59:00,
2013-02-17 18:05:00,50.2,9.5,29.68,SSE,158,7.2,7.2,19,-99.99,,---,-99.99,0.00,VWS V14.01,2013-02-18 00:05:00,
2013-02-17 18:11:00,49.8,9.2,29.68,South,180,6.5,6.5,19,-99.99,,---,-99.99,0.00,VWS V14.01,2013-02-18 00:11:00,
2013-02-17 18:16:00,49.3,8.8,29.68,SSE,158,8.7,8.7,19,-99.99,,---,-99.99,0.00,VWS V14.01,2013-02-18 00:16:00,
2013-02-17 18:21:00,49.3,8.8,29.68,ESE,112,5.4,5.8,19,-99.99,,---,-99.99,0.00,VWS V14.01,2013-02-18 00:21:00,
2013-02-17 18:27:00,48.9,8.5,29.68,SE,135,3.6,7.6,19,-99.99,,---,-99.99,0.00,VWS V14.01,2013-02-18 00:27:00,
2013-02-17 18:32:00,48.4,8.0,29.68,SE,135,6.0,7.2,19,-99.99,,---,-99.99,0.00,VWS V14.01,2013-02-18 00:32:00,
2013-02-17 18:38:00,48.2,7.9,29.68,SE,135,6.5,6.5,19,-99.99,,---,-99.99,0.00,VWS V14.01,2013-02-18 00:38:00,
2013-02-17 18:44:00,47.3,7.1,29.68,SE,135,5.6,5.6,19,-99.99,,---,-99.99,0.00,VWS V14.01,2013-02-18 00:44:00,
2013-02-17 18:49:00,46.9,6.8,29.68,ESE,112,5.4,7.6,19,-99.99,,---,-99.99,0.00,VWS V14.01,2013-02-18 00:49:00,
2013-02-17 18:54:00,46.8,6.7,29.68,SE,135,5.6,7.8,19,-99.99,,---,-99.99,0.00,VWS V14.01,2013-02-18 00:54:00,
2013-02-17 18:59:00,46.8,6.7,29.68,ESE,112,5.6,5.6,19,-99.99,,---,-99.99,0.00,VWS V14.01,2013-02-18 00:59:00,
2013-02-17 19:05:00,46.8,6.7,29.65,SE,135,7.6,7.6,19,-99.99,,---,-99.99,0.00,VWS V14.01,2013-02-18 01:05:00,
2013-02-17 19:10:00,46.9,6.8,29.65,ESE,112,7.4,7.4,19,-99.99,,---,-99.99,0.00,VWS V14.01,2013-02-18 01:10:00,
2013-02-17 19:16:00,46.9,6.8,29.65,SE,135,6.3,7.4,19,-99.99,,---,-99.99,0.00,VWS V14.01,2013-02-18 01:16:00,
2013-02-17 19:22:00,47.1,7.0,29.65,SSE,158,5.6,5.6,19,-99.99,,---,-99.99,0.00,VWS V14.01,2013-02-18 01:22:00,